Preview of NWS' New Version of Forecast
This preview is not operational and should not be used for support decisions.
Latest weather observations around

Hot Springs, Memorial Field Airport (KHOT)

Using English Units (Switch to International System of Units)
Date/ Time (CDT) Wind (mph) Vis. (mi) Weather Sky Cond. Temp (°F) Rel. Humidity Wind Chill (°F) Heat Index (°F) Pressure Precip. (in)
Air Dwpt 6 hour Altimeter (inHg) Sea level (inHg) 1 hr 3 hr 6 hr
Max Min
Jun 19 05:53 Calm 10 Clear CLR 74 71     91%   75 29.81 29.78      
Jun 19 04:53 Calm 10 Clear CLR 72 71     97%   73 29.81 29.79      
Jun 19 03:53 Calm 10 Clear CLR 73 71     94%   74 29.81 29.79      
Jun 19 02:53 Calm 10 Clear CLR 73 71     94%   74 29.83 29.81      
Jun 19 01:53 Calm 10 Clear CLR 74 71     91%   75 29.86 29.84      
Jun 19 00:53 Calm 10 Clear CLR 74 72     94%   75 29.86 29.84      
Jun 18 23:53 Calm 10 Clear CLR 76 72     88%   77 29.87 29.85      
Jun 18 22:53 Calm 10 Clear CLR 77 71     82%   78 29.86 29.84      
Jun 18 21:53 Calm 10 Clear CLR 77 71     82%   78 29.84 29.82      
Jun 18 20:53 Calm 10 Clear CLR 82 72     72%   87 29.83 29.81      
Jun 18 19:53 S 5 10 Clear CLR 85 71     63%   90 29.82 29.8      
Jun 18 18:53 W 5 10 Clear CLR 87 70     57%   92 29.82 29.8      
Jun 18 17:53 SSW 5 10 Mostly Cloudy BKN046 89 68     50%   93 29.83 29.81      
Jun 18 16:53 NNW 5 10 Clear CLR 89 68     50%   93 29.85 29.83      
Jun 18 15:53 SSW 6 10 Clear CLR 88 68     52%   92 29.87 29.85      
Jun 18 14:53 W 5 10 Clear CLR 87 67     51%   90 29.89 29.86      
Jun 18 13:53 W 6 10 Cloudy BKN080 OVC090 85 67     55%   88 29.91 29.89      
Jun 18 12:53 W 6 10 Mostly Cloudy FEW042 BKN055 84 66     55%   86 29.93 29.91      
Jun 18 11:53 W 5 10 Clear CLR 84 66     55%   86 29.92 29.9      
Jun 18 10:53 3 10 Partly Cloudy FEW028 SCT035 80 69     69%   83 29.93 29.91      
Jun 18 09:53 Calm 10 Clear CLR 79 69     72%   80 29.93 29.91      
Jun 18 08:53 W 5 10 Clear CLR 75 69     82%   76 29.94 29.92      
Jun 18 07:53 WNW 3 10 Clear CLR 71 69     93%   72 29.93 29.91      
Jun 18 06:53 WNW 3 7 Clear CLR 68 68     100%     29.92 29.9      
Jun 18 05:53 Calm 7 Partly Cloudy SCT001 68 67     96%     29.9 29.88      
Jun 18 05:41 Calm 4 Fog/Mist SCT001 68 67     96%     29.9        
Jun 18 05:38 Calm 1.25 Fog/Mist SCT001 67 67     100%     29.9        
Jun 18 05:26 Calm 0.75 Fog/Mist VV001 67 67     100%     29.91        
Jun 18 05:23 Calm 1.5 Fog/Mist FEW002 67 67     100%     29.91        
Jun 18 04:53 Calm 5 Fog/Mist FEW002 68 68     100%     29.9 29.88      
Jun 18 04:35 Calm 5 Fog/Mist FEW002 69 68     96%     29.91        
Jun 18 03:53 Calm 8 Clear CLR 69 69     100%     29.91 29.89      
Jun 18 02:53 W 3 10 Clear CLR 70 69     97%     29.92 29.9      
Jun 18 01:53 NW 3 10 Clear CLR 71 69     93%   72 29.93 29.91      
Jun 18 00:53 Calm 10 Partly Cloudy SCT060 SCT070 73 70     90%   74 29.92 29.9      
Jun 17 23:53 Calm 10 Mostly Cloudy BKN055 BKN065 74 71     91%   75 29.93 29.91      
Jun 17 22:53 Calm 10 Cloudy OVC060 76 71     85%   77 29.92 29.9      
Jun 17 21:53 Calm 10 Cloudy OVC055 76 70     82%   77 29.9 29.88      
Jun 17 20:53 Calm 10 Partly Cloudy SCT055 77 69     77%   78 29.88 29.86      
Jun 17 19:53 S 5 10 Cloudy OVC060 81 68     65%   84 29.88 29.86      
Jun 17 18:53 SW 6 10 Partly Cloudy SCT060 83 66     57%   85 29.87 29.85      
Jun 17 17:53 SW 6 10 Mostly Clear FEW055 83 68     61%   86 29.88 29.86      
Jun 17 16:53 SSW 8 10 Cloudy OVC050 82 68     63%   85 29.9 29.88      
Jun 17 15:53 SSW 6 10 Cloudy FEW033 OVC055 82 67     60%   85 29.9 29.88      
Jun 17 14:53 WSW 8 10 Cloudy OVC060 82 67     60%   85 29.92 29.9      
Jun 17 13:53 SW 6 10 Cloudy SCT031 BKN040 OVC055 80 67     64%   82 29.93 29.91      
Jun 17 12:53 WSW 7 10 Cloudy OVC060 81 66     61%   83 29.95 29.93      
Jun 17 12:00 SW 7 10 Mostly Cloudy SCT025 BKN032 BKN090 78 67     69%   79 29.95        
Jun 17 11:53 Calm 10 Mostly Cloudy BKN027 BKN032 BKN090 78 67     69%   79 29.95 29.93      
Jun 17 11:51 Calm 10 Mostly Cloudy BKN029 BKN090 79 66     65%   79 29.95        
Jun 17 11:44 SW 3 10 Mostly Cloudy SCT027 BKN032 77 66     69%   78 29.95        
Jun 17 10:53 S 7 10 Mostly Cloudy BKN022 77 67     71%   78 29.95 29.93      
Jun 17 09:53 3 10 Cloudy OVC015 74 66     76%   75 29.93 29.91      
Jun 17 09:40 3 10 Cloudy OVC015 74 66     76%   75 29.93        
Jun 17 08:53 3 10 Cloudy OVC012 71 67     87%   72 29.93 29.91      
Jun 17 08:10 Calm 10 Mostly Cloudy BKN010 70 66     87%     29.92        
Jun 17 07:53 Calm 10 Mostly Clear FEW010 70 67     90%     29.91 29.89      
Jun 17 07:36 Calm 10 Partly Cloudy SCT010 70 67     90%     29.92        
Jun 17 07:21 Calm 10 Mostly Cloudy BKN009 69 67     93%     29.92        
Jun 17 07:02 Calm 10 Mostly Clear FEW009 69 67     93%     29.92        
Jun 17 06:53 Calm 10 Mostly Clear FEW019 69 67     93%     29.92 29.9      
Jun 17 06:43 Calm 10 Partly Cloudy SCT019 69 67     93%     29.92        
Jun 17 06:04 3 10 Mostly Cloudy FEW010 BKN020 69 66     90%     29.92        
Jun 17 05:53 SSW 5 10 Partly Cloudy SCT010 68 66     93%     29.92 29.9      
Jun 17 05:44 3 10 Mostly Cloudy BKN011 BKN120 68 66     93%     29.91        
Jun 17 04:53 Calm 10 Partly Cloudy SCT012 SCT120 68 66     93%     29.9 29.88      
Jun 17 03:53 Calm 10 Clear CLR 68 66     93%     29.89 29.87      
Jun 17 02:53 Calm 10 Mostly Clear FEW040 69 67     93%     29.89 29.86      
Jun 17 01:53 Calm 10 Clear CLR 69 66     90%     29.89 29.87      
Jun 17 00:53 WSW 5 10 Clear   69 66     90%     29.91 29.89      
Jun 16 23:53 E 3 10 Clear CLR 70 66     87%     29.87 29.85      
Jun 16 22:53 ESE 3 10 Clear CLR 70 66     87%     29.86 29.84      
Jun 16 22:01 W 3 10 Partly Cloudy SCT019 72 66     82%   73 29.9        
Jun 16 21:53 SW 9 10 Mostly Cloudy BKN019 BKN065 72 66     82%   73 29.9 29.88      
Jun 16 20:53 W 8 10 Mostly Clear FEW080 74 67     79%   75 29.9 29.88      
Jun 16 19:53 W 7 10 Mostly Cloudy BKN065 76 67     74%   77 29.89 29.87      
Jun 16 18:53 SW 8 10 Clear CLR 78 66     67%   79 29.86 29.83      
Jun 16 17:53 SSW 11 10 Clear CLR 80 67     64%   82 29.87 29.85      
Jun 16 16:53 SSW 9 10 Clear CLR 82 68     63%   85 29.89 29.86      
Jun 16 15:53 SSW 6 10 Clear CLR 84 66     55%   86 29.91 29.88      
Jun 16 14:53 SSW 8 10 Clear CLR 84 65     53%   86 29.92 29.9      
Jun 16 13:53 SSW 8 10 Clear CLR 83 66     57%   85 29.91 29.88      
Jun 16 12:53 WSW 7 10 Clear CLR 82 66     58%   84 29.9 29.88     0
Jun 16 11:53 S 9 10 Clear CLR 81 68     65%   84 29.89 29.87      
Jun 16 10:53 SE 6 10 Clear CLR 77 68     74%   78 29.93 29.91      
Jun 16 09:53 WSW 8 10 Cloudy OVC085 76 68     76%   77 29.97 29.94   0  
Jun 16 08:53 Calm 10 Mostly Clear FEW110 76 69     79%   77 29.94 29.92 0    
Jun 16 07:53 W 3 10 Mostly Clear FEW110 75 72     90%   76 29.94 29.91 0    
Jun 16 07:14 WNW 6 9 Light Rain FEW014 BKN055 OVC100 73 71     94%   74 29.93   0    
Jun 16 07:05 NW 9 2 Rain and Fog/Mist SCT015 SCT025 BKN035 74 72     94%   75 29.94   0    
Jun 16 07:03 WNW 9 1.75 Rain and Fog/Mist SCT015 BKN025 BKN035 75 72     90%   76 29.94   0    
Jun 16 06:53 SW 7 10 Partly Cloudy FEW015 SCT025 SCT035 78 74     87%   80 29.92 29.9      
Jun 16 06:12 WSW 13 10 Mostly Cloudy FEW017 SCT024 BKN032 78 74     87%   80 29.92        
Jun 16 05:53 SW 15 10 Cloudy BKN020 BKN026 OVC032 78 74     87%   80 29.91 29.89      
May 15 01:53 WNW 3 10 Clear CLR 73 66     79%   74 29.96 29.93      
May 14 12:53 S 7 10 Clear CLR 88 68     52%   92 30 29.98      
May 14 11:53 SSW 8 10 Clear CLR 87 68     53%   91 30.02 30      
May 13 06:53 Calm 10 Clear CLR 68 65     90%     30.07 30.05      
May 13 00:53 SSE 3 10 Clear CLR 76 67     74%   77 30.02 29.99      
May 12 02:53 SW 11 10 Clear CLR 75 66     74%   76 29.97 29.95      
May 12 00:53 S 7 10 Clear CLR 77 64     64%   77 29.97 29.95      
May 11 14:53 SW 10 10 Clear CLR 87 60     40%   87 29.97 29.94      
Jun 11 21:53 SE 8 10 Clear   82 72     72%   87 29.98 29.96      
Jun 10 21:53 ESE 3 10 Clear CLR 76 63     64%   76 29.95 29.93      
Jun 10 10:53 S 10 10 Clear CLR 80 62     54%   81 30 29.98      
Jun 08 18:53 NE 9 10 Clear   80 54     41%   80 29.92 29.9      
Jun 08 13:53   10 Clear CLR 83 55     38%   82 29.99 29.98      
Jun 08 07:53 Calm 10 Clear CLR 64 59     84%     30.03 30.02      
Jun 06 10:53 ENE 10 10 Mostly Clear FEW033 83 71     67%   88 29.85 29.83      
Jun 06 01:07 Calm 10 Partly Cloudy SCT016 70 69     97%     29.81        
Notice The following observation data may not be complete
Jun 05 15:38   10 Mostly Clear FEW006          %